Location: Baia Mare
(47.6567°N, 23.5850°E)
Time: 13:17:56
(UTC+03:00)

ISS - Pass Details

Date: 23 May 2018
Orbit: 402 x 407 km, 51.6° (Epoch: 24 May)

Event Time Altitude Azimuth Distance (km) Brightness Sun altitude
Rises 03:14:24 0° 293° (WNW) 2,320 0.0 -17.3°
Reaches altitude 10° 03:16:30 10° 291° (WNW) 1,458 -1.1 -17.2°
Maximum altitude 03:19:44 69° 209° (SSW) 434 -4.0 -16.9°
Drops below altitude 10° 03:22:59 10° 125° (SE) 1,451 -1.1 -16.6°
Sets 03:25:03 0° 122° (ESE) 2,308 0.0 -16.5°
